,,PA_Meas_PMT16A,,PR_Meas_QMR101_102,,RH_Meas_QMH101,,SR_Meas_QMS101,,TA_Meas_QMH101,,GenWind,,GenWind,
time,status,PA,status,PR,status,RH,status,SR,status,TA,status,DirAvg,status,SpdAvg,
2011-01-29, 00:00:04,VALID,917.227,VALID,0,VALID,84.1701,VALID,0.107441,VALID,20.6764,VALID,115,VALID,1.74414,
2011-01-29, 00:01:04,VALID,917.245,VALID,0,VALID,84.5132,VALID,0,VALID,20.5968,VALID,114,VALID,1.45156,
2011-01-29, 00:02:04,VALID,917.233,VALID,0,VALID,84.5437,VALID,0,VALID,20.6194,VALID,110,VALID,1.83125,
2011-01-29, 00:03:04,VALID,917.282,VALID,0,VALID,84.3302,VALID,0,VALID,20.6358,VALID,115,VALID,0.986719,
2011-01-29, 00:04:04,VALID,917.279,VALID,0,VALID,83.8271,VALID,0,VALID,20.678,VALID,142,VALID,1.38477,
2011-01-29, 00:05:04,VALID,917.307,VALID,0,VALID,84.0558,VALID,0,VALID,20.6975,VALID,122,VALID,1.49492,
2011-01-29, 00:06:04,VALID,917.306,VALID,0,VALID,84.2997,VALID,0,VALID,20.678,VALID,116,VALID,1.57773,
2011-01-29, 00:07:04,VALID,917.338,VALID,0,VALID,84.4141,VALID,0,VALID,20.639,VALID,116,VALID,0.95625,
2011-01-29, 00:08:04,VALID,917.344,VALID,0,VALID,83.7204,VALID,0,VALID,20.6163,VALID,139,VALID,1.54453,
2011-01-29, 00:09:04,VALID,917.341,VALID,0,VALID,84.0939,VALID,0,VALID,20.6585,VALID,154,VALID,1.47695,
2011-01-29, 00:10:04,VALID,917.343,VALID,0,VALID,84.2464,VALID,0,VALID,20.699,VALID,154,VALID,1.00859,
2011-01-29, 00:11:04,VALID,917.394,VALID,0,VALID,84.4903,VALID,0,VALID,20.678,VALID,154,VALID,1.15273,
2011-01-29, 00:12:04,VALID,917.428,VALID,0,VALID,84.8791,VALID,0,VALID,20.6179,VALID,143,VALID,1.16836,
2011-01-29, 00:13:04,VALID,917.436,VALID,0,VALID,84.719,VALID,0,VALID,20.5999,VALID,123,VALID,1.34258,
2011-01-29, 00:14:04,VALID,917.386,VALID,0,VALID,84.9782,VALID,0,VALID,20.5999,VALID,128,VALID,0.575391,
2011-01-29, 00:15:04,VALID,917.43,VALID,0,VALID,84.719,VALID,0,VALID,20.5594,VALID,127,VALID,1.15508,
2011-01-29, 00:16:04,VALID,917.392,VALID,0,VALID,84.2997,VALID,0,VALID,20.5984,VALID,132,VALID,1.16797,
2011-01-29, 00:17:04,VALID,917.397,VALID,0,VALID,82.9809,VALID,0.107441,VALID,20.6374,VALID,127,VALID,1.46055,
2011-01-29, 00:18:04,VALID,917.379,VALID,0,VALID,83.1791,VALID,0,VALID,20.6943,VALID,94,VALID,1.46719,
2011-01-29, 00:19:04,VALID,917.369,VALID,0,VALID,84.4217,VALID,0.107441,VALID,20.7154,VALID,99,VALID,0.860937,
2011-01-29, 00:20:04,VALID,917.347,VALID,0,VALID,84.4598,VALID,0,VALID,20.6764,VALID,99,VALID,1.03789,
2011-01-29, 00:21:04,VALID,917.316,VALID,0,VALID,84.0787,VALID,0,VALID,20.6374,VALID,95,VALID,1.56406,
2011-01-29, 00:22:04,VALID,917.321,VALID,0,VALID,84.3683,VALID,0.107441,VALID,20.6179,VALID,132,VALID,1.37812,
2011-01-29, 00:23:04,VALID,917.305,VALID,0,VALID,83.6517,VALID,0.107441,VALID,20.6163,VALID,122,VALID,1.7293,
2011-01-29, 00:24:04,VALID,917.231,VALID,0,VALID,83.6517,VALID,0.107441,VALID,20.6374,VALID,122,VALID,2.52578,
2011-01-29, 00:25:04,VALID,917.286,VALID,0,VALID,84.1854,VALID,0.107441,VALID,20.6569,VALID,96,VALID,1.4332,
2011-01-29, 00:26:04,VALID,917.301,VALID,0,VALID,84.0863,VALID,0.107441,VALID,20.6179,VALID,95,VALID,1.22539,
2011-01-29, 00:27:04,VALID,917.3,VALID,0,VALID,84.1396,VALID,0.107441,VALID,20.5984,VALID,111,VALID,1.45078,
2011-01-29, 00:28:04,VALID,917.267,VALID,0,VALID,84.0482,VALID,0.107441,VALID,20.5773,VALID,104,VALID,1.25664,
2011-01-29, 00:29:04,VALID,917.251,VALID,0,VALID,84.315,VALID,0.107441,VALID,20.5773,VALID,117,VALID,1.16602,
2011-01-29, 00:30:04,VALID,917.221,VALID,0,VALID,84.7266,VALID,0,VALID,20.5984,VALID,108,VALID,0.629687,
2011-01-29, 00:31:04,VALID,917.25,VALID,0,VALID,84.8258,VALID,0.107441,VALID,20.5789,VALID,138,VALID,1.37031,
2011-01-29, 00:32:04,VALID,917.219,VALID,0,VALID,84.8944,VALID,0,VALID,20.5399,VALID,141,VALID,1.47383,
2011-01-29, 00:33:04,VALID,917.269,VALID,0,VALID,85.2527,VALID,0.107441,VALID,20.5399,VALID,128,VALID,1.29102,
2011-01-29, 00:34:04,VALID,917.264,VALID,0,VALID,85.6872,VALID,0,VALID,20.4587,VALID,110,VALID,1.61094,
2011-01-29, 00:35:04,VALID,917.283,VALID,0,VALID,86.0912,VALID,0,VALID,20.4813,VALID,105,VALID,1.19219,
2011-01-29, 00:36:04,VALID,917.262,VALID,0,VALID,86.1294,VALID,0.107441,VALID,20.4228,VALID,118,VALID,1.26445,
2011-01-29, 00:37:04,VALID,917.276,VALID,0,VALID,86.6554,VALID,0.107441,VALID,20.3823,VALID,141,VALID,0.755078,
2011-01-29, 00:38:04,VALID,917.249,VALID,0,VALID,86.4877,VALID,0.107441,VALID,20.3838,VALID,141,VALID,1.70273,
2011-01-29, 00:39:04,VALID,917.262,VALID,0,VALID,86.8078,VALID,0.107441,VALID,20.3643,VALID,130,VALID,1.18672,
2011-01-29, 00:40:04,VALID,917.24,VALID,0,VALID,86.8231,VALID,0,VALID,20.3643,VALID,150,VALID,1.22852,
2011-01-29, 00:41:04,VALID,917.245,VALID,0,VALID,86.7773,VALID,0.107441,VALID,20.3043,VALID,135,VALID,1.90703,
2011-01-29, 00:42:04,VALID,917.218,VALID,0,VALID,86.3809,VALID,0.107441,VALID,20.2427,VALID,129,VALID,2.25195,
2011-01-29, 00:43:04,VALID,917.186,VALID,0,VALID,86.9756,VALID,0.107441,VALID,20.3253,VALID,129,VALID,1.20586,
2011-01-29, 00:44:04,VALID,917.149,VALID,0,VALID,86.6096,VALID,0,VALID,20.3479,VALID,129,VALID,1.55625,
2011-01-29, 00:45:04,VALID,917.148,VALID,0,VALID,86.7545,VALID,0.107441,VALID,20.2848,VALID,137,VALID,1.47891,
2011-01-29, 00:46:04,VALID,917.099,VALID,0,VALID,86.8612,VALID,0,VALID,20.3058,VALID,111,VALID,1.3832,
2011-01-29, 00:47:04,VALID,917.074,VALID,0,VALID,86.6706,VALID,0,VALID,20.3058,VALID,129,VALID,1.4875,
2011-01-29, 00:48:04,VALID,917.088,VALID,0,VALID,86.2894,VALID,0,VALID,20.3269,VALID,136,VALID,1.90156,
2011-01-29, 00:49:04,VALID,917.033,VALID,0,VALID,86.6096,VALID,0,VALID,20.3253,VALID,134,VALID,1.61719,
2011-01-29, 00:50:04,VALID,916.992,VALID,0,VALID,86.6172,VALID,0,VALID,20.3058,VALID,153,VALID,1.69453,
2011-01-29, 00:51:04,VALID,917.004,VALID,0,VALID,86.8231,VALID,0,VALID,20.3058,VALID,132,VALID,1.81094,
2011-01-29, 00:52:04,VALID,917.003,VALID,0,VALID,86.3123,VALID,0,VALID,20.2863,VALID,126,VALID,1.97539,
2011-01-29, 00:53:04,VALID,916.959,VALID,0,VALID,86.4724,VALID,0,VALID,20.2863,VALID,137,VALID,1.37148,
2011-01-29, 00:54:04,VALID,916.934,VALID,0,VALID,86.6935,VALID,0,VALID,20.2863,VALID,123,VALID,1.33984,
2011-01-29, 00:55:04,VALID,916.933,VALID,0,VALID,86.602,VALID,0,VALID,20.2458,VALID,142,VALID,1.78359,
2011-01-29, 00:56:04,VALID,916.918,VALID,0,VALID,86.6782,VALID,0,VALID,20.2489,VALID,157,VALID,1.53828,
2011-01-29, 00:57:04,VALID,916.933,VALID,0,VALID,87.1738,VALID,0.107441,VALID,20.2668,VALID,149,VALID,1.28594,
2011-01-29, 00:58:04,VALID,916.884,VALID,0,VALID,86.9527,VALID,0,VALID,20.2473,VALID,132,VALID,1.47227,
2011-01-29, 00:59:04,VALID,916.86,VALID,0,VALID,86.6401,VALID,0,VALID,20.2293,VALID,135,VALID,2.43242,
2011-01-29, 01:00:04,VALID,916.824,VALID,0,VALID,86.7087,VALID,0,VALID,20.2263,VALID,139,VALID,1.77773,
2011-01-29, 01:01:04,VALID,916.788,VALID,0,VALID,86.5791,VALID,0,VALID,20.2863,VALID,132,VALID,1.79531,
2011-01-29, 01:02:04,VALID,916.787,VALID,0,VALID,85.7558,VALID,0,VALID,20.3222,VALID,125,VALID,1.97852,
2011-01-29, 01:03:04,VALID,916.775,VALID,0,VALID,86.2285,VALID,0,VALID,20.3448,VALID,131,VALID,1.70586,
2011-01-29, 01:04:04,VALID,916.765,VALID,0,VALID,86.2285,VALID,0,VALID,20.2637,VALID,137,VALID,1.85938,
2011-01-29, 01:05:04,VALID,916.748,VALID,0,VALID,86.2589,VALID,0,VALID,20.39,VALID,127,VALID,1.73555,
2011-01-29, 01:06:04,VALID,916.734,VALID,0,VALID,86.4038,VALID,0.107441,VALID,20.2653,VALID,124,VALID,1.53555,
2011-01-29, 01:07:04,VALID,916.741,VALID,0,VALID,86.5486,VALID,0,VALID,20.3058,VALID,119,VALID,1.93359,
2011-01-29, 01:08:04,VALID,916.721,VALID,0,VALID,86.8231,VALID,0,VALID,20.3058,VALID,108,VALID,1.25781,
2011-01-29, 01:09:04,VALID,916.693,VALID,0,VALID,86.4419,VALID,0,VALID,20.2668,VALID,128,VALID,1.98438,
2011-01-29, 01:10:04,VALID,916.67,VALID,0,VALID,86.076,VALID,0,VALID,20.3269,VALID,140,VALID,2.44492,
2011-01-29, 01:11:04,VALID,916.658,VALID,0,VALID,85.6338,VALID,0,VALID,20.3448,VALID,131,VALID,2.16328,
2011-01-29, 01:12:04,VALID,916.696,VALID,0,VALID,85.6033,VALID,0,VALID,20.3643,VALID,93,VALID,1.875,
2011-01-29, 01:13:04,VALID,916.648,VALID,0,VALID,85.771,VALID,0,VALID,20.3643,VALID,102,VALID,1.53984,
2011-01-29, 01:14:04,VALID,916.614,VALID,0,VALID,85.0316,VALID,0.107441,VALID,20.3043,VALID,126,VALID,2.39297,
2011-01-29, 01:15:04,VALID,916.583,VALID,0,VALID,85.8625,VALID,0,VALID,20.3643,VALID,131,VALID,0.95625,
2011-01-29, 01:16:04,VALID,916.551,VALID,0,VALID,86.5944,VALID,0,VALID,20.3043,VALID,86,VALID,1.44375,
2011-01-29, 01:17:04,VALID,916.578,VALID,0,VALID,86.3352,VALID,0.107441,VALID,20.2863,VALID,119,VALID,1.62266,
2011-01-29, 01:18:04,VALID,916.561,VALID,0,VALID,86.6172,VALID,0,VALID,20.2863,VALID,142,VALID,1.21953,
2011-01-29, 01:19:04,VALID,916.508,VALID,0,VALID,85.9083,VALID,0.107441,VALID,20.2458,VALID,115,VALID,1.82773,
2011-01-29, 01:20:04,VALID,916.52,VALID,0,VALID,86.3199,VALID,0,VALID,20.2863,VALID,97,VALID,1.58984,
2011-01-29, 01:21:04,VALID,916.471,VALID,0,VALID,86.1446,VALID,0,VALID,20.2653,VALID,128,VALID,2.21758,
2011-01-29, 01:22:04,VALID,916.454,VALID,0,VALID,85.9998,VALID,0.107441,VALID,20.3238,VALID,119,VALID,1.6707,
2011-01-29, 01:23:04,VALID,916.455,VALID,0,VALID,86.4343,VALID,0,VALID,20.3284,VALID,121,VALID,1.16602,
2011-01-29, 01:24:04,VALID,916.401,VALID,0,VALID,86.4953,VALID,0,VALID,20.2684,VALID,121,VALID,1.77344,
2011-01-29, 01:25:04,VALID,916.385,VALID,0,VALID,85.9998,VALID,0.107441,VALID,20.2263,VALID,109,VALID,2.35508,
2011-01-29, 01:26:04,VALID,916.361,VALID,0,VALID,86.2894,VALID,0,VALID,20.2863,VALID,131,VALID,1.44922,
2011-01-29, 01:27:04,VALID,916.348,VALID,0,VALID,86.6935,VALID,0,VALID,20.2473,VALID,127,VALID,1.16836,
2011-01-29, 01:28:05,VALID,916.357,VALID,0,VALID,86.9756,VALID,0,VALID,20.2278,VALID,119,VALID,0.883203,
2011-01-29, 01:29:05,VALID,916.323,VALID,0,VALID,86.7392,VALID,0,VALID,20.2925,VALID,128,VALID,1.25078,
2011-01-29, 01:30:05,VALID,916.348,VALID,0,VALID,87.0975,VALID,0,VALID,20.1888,VALID,128,VALID,0.767187,
2011-01-29, 01:31:05,VALID,916.336,VALID,0,VALID,87.1204,VALID,0,VALID,20.1903,VALID,126,VALID,1.18438,
2011-01-29, 01:32:05,VALID,916.347,VALID,0,VALID,87.0594,VALID,0,VALID,20.1888,VALID,145,VALID,1.10117,
2011-01-29, 01:33:05,VALID,916.33,VALID,0,VALID,86.7926,VALID,0,VALID,20.1888,VALID,132,VALID,1.61367,
2011-01-29, 01:34:05,VALID,916.345,VALID,0,VALID,86.5639,VALID,0,VALID,20.2083,VALID,111,VALID,1.02695,
2011-01-29, 01:35:05,VALID,916.321,VALID,0,VALID,86.4343,VALID,0.107441,VALID,20.2278,VALID,124,VALID,0.783203,
2011-01-29, 01:36:05,VALID,916.304,VALID,0,VALID,86.1675,VALID,0,VALID,20.2489,VALID,124,VALID,1.03828,
2011-01-29, 01:37:05,VALID,916.329,VALID,0,VALID,86.0912,VALID,0,VALID,20.2473,VALID,118,VALID,1.34336,
2011-01-29, 01:38:05,VALID,916.274,VALID,0,VALID,85.9007,VALID,0.107441,VALID,20.2473,VALID,151,VALID,1.32578,
2011-01-29, 01:39:05,VALID,916.292,VALID,0,VALID,86.076,VALID,0,VALID,20.2668,VALID,140,VALID,1.02109,
2011-01-29, 01:40:05,VALID,916.271,VALID,0,VALID,85.9311,VALID,0,VALID,20.2668,VALID,102,VALID,1.12891,
2011-01-29, 01:41:05,VALID,916.301,VALID,0,VALID,85.7253,VALID,0.107441,VALID,20.2458,VALID,118,VALID,1.34297,
2011-01-29, 01:42:05,VALID,916.288,VALID,0,VALID,85.428,VALID,0,VALID,20.2863,VALID,99,VALID,1.92422,
2011-01-29, 01:43:05,VALID,916.249,VALID,0,VALID,86.0303,VALID,0,VALID,20.2442,VALID,128,VALID,0.818359,
2011-01-29, 01:44:05,VALID,916.237,VALID,0,VALID,85.9311,VALID,0.107441,VALID,20.2879,VALID,148,VALID,1.83359,
2011-01-29, 01:45:05,VALID,916.264,VALID,0,VALID,86.2208,VALID,0,VALID,20.1647,VALID,139,VALID,1.41953,
2011-01-29, 01:46:05,VALID,916.232,VALID,0,VALID,86.419,VALID,0.107441,VALID,20.2083,VALID,130,VALID,1.63984,
2011-01-29, 01:47:05,VALID,916.24,VALID,0,VALID,85.2527,VALID,0,VALID,20.2098,VALID,141,VALID,1.65664,
2011-01-29, 01:48:05,VALID,916.232,VALID,0,VALID,85.6262,VALID,0,VALID,20.2473,VALID,112,VALID,0.542188,
2011-01-29, 01:49:05,VALID,916.249,VALID,0,VALID,85.3518,VALID,0,VALID,20.3089,VALID,147,VALID,1.13555,
2011-01-29, 01:50:05,VALID,916.238,VALID,0,VALID,86.0531,VALID,0.107441,VALID,20.3074,VALID,170,VALID,1.13711,
2011-01-29, 01:51:05,VALID,916.2,VALID,0,VALID,85.5805,VALID,0.107441,VALID,20.2668,VALID,141,VALID,1.64844,
2011-01-29, 01:52:05,VALID,916.178,VALID,0,VALID,86.0379,VALID,0,VALID,20.2052,VALID,141,VALID,0.492578,
2011-01-29, 01:53:05,VALID,916.18,VALID,0,VALID,85.5119,VALID,0,VALID,20.2263,VALID,133,VALID,1.55352,
2011-01-29, 01:54:05,VALID,916.186,VALID,0,VALID,84.6657,VALID,0,VALID,20.3448,VALID,106,VALID,1.98086,
2011-01-29, 01:55:05,VALID,916.226,VALID,0,VALID,85.1307,VALID,0,VALID,20.3448,VALID,111,VALID,1.28594,
2011-01-29, 01:56:05,VALID,916.184,VALID,0,VALID,84.2769,VALID,0,VALID,20.3238,VALID,123,VALID,1.75703,
2011-01-29, 01:57:05,VALID,916.192,VALID,0,VALID,83.8957,VALID,0.107441,VALID,20.3628,VALID,121,VALID,1.07148,
2011-01-29, 01:58:05,VALID,916.152,VALID,0,VALID,84.2387,VALID,0,VALID,20.4244,VALID,119,VALID,1.37656,
2011-01-29, 01:59:05,VALID,916.184,VALID,0,VALID,84.7876,VALID,0,VALID,20.3628,VALID,119,VALID,0.798437,
2011-01-29, 02:00:05,VALID,916.145,VALID,0,VALID,84.315,VALID,0,VALID,20.3838,VALID,119,VALID,1.41094,
2011-01-29, 02:01:05,VALID,916.185,VALID,0,VALID,84.6657,VALID,0,VALID,20.4259,VALID,135,VALID,1.20938,
2011-01-29, 02:02:05,VALID,916.187,VALID,0,VALID,84.6352,VALID,0,VALID,20.3838,VALID,121,VALID,1.16914,
2011-01-29, 02:03:05,VALID,916.191,VALID,0,VALID,84.7343,VALID,0,VALID,20.4064,VALID,122,VALID,0.914453,
2011-01-29, 02:04:05,VALID,916.223,VALID,0,VALID,85.0316,VALID,0,VALID,20.3659,VALID,122,VALID,0.752734,
2011-01-29, 02:05:05,VALID,916.229,VALID,0,VALID,85.3136,VALID,0,VALID,20.3253,VALID,122,VALID,0.250391,
2011-01-29, 02:06:05,VALID,916.242,VALID,0,VALID,85.7101,VALID,0,VALID,20.3479,VALID,122,VALID,0.224609,
2011-01-29, 02:07:05,VALID,916.23,VALID,0,VALID,85.6948,VALID,0,VALID,20.3464,VALID,122,VALID,0.792969,
2011-01-29, 02:08:05,VALID,916.231,VALID,0,VALID,86.4877,VALID,0,VALID,20.3479,VALID,122,VALID,0.541406,
2011-01-29, 02:09:05,VALID,916.219,VALID,0,VALID,86.0379,VALID,0,VALID,20.2894,VALID,133,VALID,1.37578,
2011-01-29, 02:10:05,VALID,916.17,VALID,0,VALID,86.3657,VALID,0,VALID,20.3105,VALID,133,VALID,0.9,
2011-01-29, 02:11:05,VALID,916.179,VALID,0,VALID,86.724,VALID,0,VALID,20.2684,VALID,133,VALID,1.09336,
2011-01-29, 02:12:05,VALID,916.172,VALID,0,VALID,87.1509,VALID,0,VALID,20.2098,VALID,133,VALID,1.47187,
2011-01-29, 02:13:05,VALID,916.104,VALID,0,VALID,87.8522,VALID,0,VALID,20.1919,VALID,141,VALID,0.781641,
2011-01-29, 02:14:05,VALID,916.095,VALID,0,VALID,88.1267,VALID,0,VALID,20.1093,VALID,141,VALID,1.14453,
2011-01-29, 02:15:05,VALID,916.071,VALID,0,VALID,87.6388,VALID,0,VALID,20.1318,VALID,177,VALID,2.35391,
2011-01-29, 02:16:05,VALID,916.059,VALID,0,VALID,87.6464,VALID,0,VALID,20.1708,VALID,168,VALID,1.33906,
2011-01-29, 02:17:05,VALID,916.023,VALID,0,VALID,87.7913,VALID,0,VALID,20.1693,VALID,136,VALID,1.20078,
2011-01-29, 02:18:05,VALID,916.033,VALID,0,VALID,88.2639,VALID,0,VALID,20.1498,VALID,152,VALID,0.794922,
2011-01-29, 02:19:05,VALID,915.982,VALID,0,VALID,87.8294,VALID,0.107441,VALID,20.1108,VALID,147,VALID,1.88828,
2011-01-29, 02:20:05,VALID,915.971,VALID,0,VALID,88.3173,VALID,0,VALID,20.1108,VALID,160,VALID,1.36875,
2011-01-29, 02:21:05,VALID,915.94,VALID,0,VALID,88.1572,VALID,0,VALID,20.0898,VALID,107,VALID,2.07227,
2011-01-29, 02:22:05,VALID,915.958,VALID,0,VALID,88.4774,VALID,0,VALID,20.0913,VALID,152,VALID,2.06133,
2011-01-29, 02:23:05,VALID,915.954,VALID,0,VALID,88.5612,VALID,0,VALID,20.0913,VALID,139,VALID,1.63867,
2011-01-29, 02:24:05,VALID,915.902,VALID,0,VALID,88.5917,VALID,0,VALID,20.0718,VALID,141,VALID,1.5832,
2011-01-29, 02:25:05,VALID,915.879,VALID,0,VALID,88.8585,VALID,0.107441,VALID,20.0523,VALID,146,VALID,1.26328,
2011-01-29, 02:26:05,VALID,915.862,VALID,0,VALID,89.2016,VALID,0,VALID,20.0133,VALID,122,VALID,1.77852,
2011-01-29, 02:27:05,VALID,915.849,VALID,0,VALID,89.6056,VALID,0,VALID,20.0148,VALID,130,VALID,2.11406,
2011-01-29, 02:28:05,VALID,915.837,VALID,0,VALID,90.3451,VALID,0,VALID,19.9158,VALID,107,VALID,1.47383,
2011-01-29, 02:29:05,VALID,915.79,VALID,0,VALID,91.0693,VALID,0,VALID,19.8783,VALID,116,VALID,1.62969,
2011-01-29, 02:30:05,VALID,915.753,VALID,0,VALID,91.5572,VALID,0,VALID,19.7583,VALID,126,VALID,1.56523,
2011-01-29, 02:31:05,VALID,915.68,VALID,0,VALID,91.9231,VALID,0.107441,VALID,19.6788,VALID,119,VALID,1.86523,
2011-01-29, 02:32:05,VALID,915.646,VALID,0.2,VALID,92.0985,VALID,0,VALID,19.6818,VALID,131,VALID,1.25469,
2011-01-29, 02:33:05,VALID,915.638,VALID,0,VALID,92.4263,VALID,0,VALID,19.6623,VALID,128,VALID,1.93711,
2011-01-29, 02:34:05,VALID,915.615,VALID,0,VALID,92.6169,VALID,0,VALID,19.6443,VALID,124,VALID,2.16328,
2011-01-29, 02:35:05,VALID,915.611,VALID,0,VALID,92.7312,VALID,0,VALID,19.5228,VALID,113,VALID,2.77383,
2011-01-29, 02:36:05,VALID,915.594,VALID,0,VALID,92.9218,VALID,0.107441,VALID,19.5648,VALID,113,VALID,1.77031,
2011-01-29, 02:37:05,VALID,915.565,VALID,0,VALID,93.1581,VALID,0,VALID,19.5453,VALID,126,VALID,1.84297,
2011-01-29, 02:38:05,VALID,915.55,VALID,0,VALID,93.2496,VALID,0.107441,VALID,19.5273,VALID,124,VALID,2.35273,
2011-01-29, 02:39:05,VALID,915.528,VALID,0,VALID,93.3487,VALID,0.107441,VALID,19.4868,VALID,129,VALID,2.04883,
2011-01-29, 02:40:05,VALID,915.474,VALID,0.2,VALID,93.5012,VALID,0,VALID,19.5078,VALID,107,VALID,0.871094,
2011-01-29, 02:41:05,VALID,915.464,VALID,0,VALID,93.4173,VALID,0,VALID,19.4673,VALID,139,VALID,1.36914,
2011-01-29, 02:42:05,VALID,915.482,VALID,0,VALID,93.4402,VALID,0.107441,VALID,19.4688,VALID,150,VALID,0.971094,
2011-01-29, 02:43:05,VALID,915.532,VALID,0,VALID,93.3792,VALID,0.107441,VALID,19.4478,VALID,138,VALID,1.66797,
2011-01-29, 02:44:05,VALID,915.523,VALID,0,VALID,93.3792,VALID,0,VALID,19.4283,VALID,137,VALID,2.1668,
2011-01-29, 02:45:05,VALID,915.547,VALID,0,VALID,93.3792,VALID,0,VALID,19.4493,VALID,184,VALID,1.30078,
2011-01-29, 02:46:05,VALID,915.516,VALID,0,VALID,93.2954,VALID,0,VALID,19.4283,VALID,142,VALID,2.31758,
2011-01-29, 02:47:05,VALID,915.51,VALID,0,VALID,93.3792,VALID,0,VALID,19.4688,VALID,148,VALID,1.58828,
2011-01-29, 02:48:05,VALID,915.495,VALID,0,VALID,93.3335,VALID,0,VALID,19.4493,VALID,143,VALID,1.67773,
2011-01-29, 02:49:05,VALID,915.431,VALID,0,VALID,93.3868,VALID,0,VALID,19.4283,VALID,155,VALID,1.16016,
2011-01-29, 02:50:05,VALID,915.397,VALID,0,VALID,93.3716,VALID,0,VALID,19.4493,VALID,157,VALID,1.30469,
2011-01-29, 02:51:05,VALID,915.397,VALID,0,VALID,93.2649,VALID,0,VALID,19.4493,VALID,147,VALID,1.66133,
2011-01-29, 02:52:05,VALID,915.345,VALID,0,VALID,93.1505,VALID,0,VALID,19.4688,VALID,160,VALID,1.28242,
2011-01-29, 02:53:05,VALID,915.334,VALID,0,VALID,93.0972,VALID,0,VALID,19.4478,VALID,147,VALID,2.23242,
2011-01-29, 02:54:05,VALID,915.328,VALID,0,VALID,93.0667,VALID,0,VALID,19.4493,VALID,140,VALID,1.33555,
2011-01-29, 02:55:05,VALID,915.294,VALID,0,VALID,93.1353,VALID,0,VALID,19.4688,VALID,152,VALID,1.03711,
2011-01-29, 02:56:05,VALID,915.252,VALID,0,VALID,93.0285,VALID,0,VALID,19.4688,VALID,129,VALID,1.95742,
2011-01-29, 02:57:05,VALID,915.233,VALID,0,VALID,93.1124,VALID,0,VALID,19.4688,VALID,148,VALID,1.1082,
2011-01-29, 02:58:05,VALID,915.19,VALID,0,VALID,93.1505,VALID,0,VALID,19.4283,VALID,147,VALID,1.18125,
2011-01-29, 02:59:05,VALID,915.167,VALID,0,VALID,92.8685,VALID,0,VALID,19.4283,VALID,151,VALID,1.87852,
2011-01-29, 03:00:05,VALID,915.173,VALID,0,VALID,92.7465,VALID,0,VALID,19.4883,VALID,144,VALID,1.29023,
2011-01-29, 03:01:05,VALID,915.114,VALID,0,VALID,92.7007,VALID,0,VALID,19.4673,VALID,120,VALID,1.65547,
2011-01-29, 03:02:05,VALID,915.145,VALID,0,VALID,92.7617,VALID,0.107441,VALID,19.4283,VALID,128,VALID,1.70391,
2011-01-29, 03:03:05,VALID,915.16,VALID,0,VALID,92.9371,VALID,0,VALID,19.4298,VALID,111,VALID,1.49375,
2011-01-29, 03:04:05,VALID,915.146,VALID,0,VALID,93.1658,VALID,0,VALID,19.3893,VALID,124,VALID,1.26641,
2011-01-29, 03:05:05,VALID,915.155,VALID,0,VALID,93.3564,VALID,0,VALID,19.3518,VALID,116,VALID,1.65313,
2011-01-29, 03:06:05,VALID,915.151,VALID,0,VALID,93.5164,VALID,0,VALID,19.3308,VALID,116,VALID,1.82969,
2011-01-29, 03:07:05,VALID,915.127,VALID,0,VALID,93.646,VALID,0,VALID,19.2918,VALID,116,VALID,1.81953,
2011-01-29, 03:08:05,VALID,915.081,VALID,0,VALID,93.7147,VALID,0,VALID,19.3323,VALID,135,VALID,1.73086,
2011-01-29, 03:09:05,VALID,915.089,VALID,0,VALID,93.7909,VALID,0,VALID,19.3323,VALID,128,VALID,1.71172,
2011-01-29, 03:10:05,VALID,915.011,VALID,0,VALID,93.9738,VALID,0,VALID,19.2918,VALID,127,VALID,0.698047,
2011-01-29, 03:11:05,VALID,914.995,VALID,0,VALID,94.1111,VALID,0.107441,VALID,19.2933,VALID,127,VALID,0.994531,
2011-01-29, 03:12:05,VALID,915.043,VALID,0,VALID,94.0348,VALID,0,VALID,19.2933,VALID,138,VALID,1.80977,
2011-01-29, 03:13:05,VALID,915.035,VALID,0,VALID,93.8747,VALID,0,VALID,19.2918,VALID,144,VALID,0.863672,
2011-01-29, 03:14:05,VALID,915.079,VALID,0,VALID,93.7375,VALID,0,VALID,19.3323,VALID,137,VALID,0.825,
2011-01-29, 03:15:05,VALID,915.079,VALID,0,VALID,93.5164,VALID,0,VALID,19.3323,VALID,105,VALID,1.09766,
2011-01-29, 03:16:05,VALID,915.106,VALID,0,VALID,93.3792,VALID,0,VALID,19.3323,VALID,113,VALID,1.07578,
2011-01-29, 03:17:05,VALID,915.091,VALID,0,VALID,93.4097,VALID,0,VALID,19.2918,VALID,108,VALID,0.8125,
2011-01-29, 03:18:05,VALID,915.075,VALID,0,VALID,93.1658,VALID,0,VALID,19.3323,VALID,150,VALID,0.976953,
2011-01-29, 03:19:05,VALID,915.065,VALID,0,VALID,93.1581,VALID,0,VALID,19.3323,VALID,138,VALID,0.921484,
2011-01-29, 03:20:05,VALID,915.075,VALID,0,VALID,93.181,VALID,0,VALID,19.3308,VALID,148,VALID,0.865625,
2011-01-29, 03:21:05,VALID,915.126,VALID,0,VALID,92.9904,VALID,0,VALID,19.3308,VALID,121,VALID,1.35625,
2011-01-29, 03:22:05,VALID,915.126,VALID,0,VALID,92.9904,VALID,0,VALID,19.3518,VALID,139,VALID,1.25664,
2011-01-29, 03:23:05,VALID,915.172,VALID,0,VALID,92.8989,VALID,0,VALID,19.3518,VALID,156,VALID,2.24883,
2011-01-29, 03:24:05,VALID,915.171,VALID,0,VALID,92.7312,VALID,0,VALID,19.3698,VALID,133,VALID,2.20664,
2011-01-29, 03:25:05,VALID,915.204,VALID,0,VALID,92.5483,VALID,0,VALID,19.3893,VALID,138,VALID,1.63437,
2011-01-29, 03:26:05,VALID,915.245,VALID,0,VALID,92.6016,VALID,0,VALID,19.4313,VALID,138,VALID,1.23633,
2011-01-29, 03:27:05,VALID,915.293,VALID,0,VALID,92.6093,VALID,0,VALID,19.4283,VALID,110,VALID,1.04961,
2011-01-29, 03:28:05,VALID,915.345,VALID,0,VALID,92.5025,VALID,0,VALID,19.4688,VALID,152,VALID,1.42461,
2011-01-29, 03:29:05,VALID,915.382,VALID,0,VALID,92.716,VALID,0,VALID,19.4478,VALID,152,VALID,0.751953,
2011-01-29, 03:30:05,VALID,915.386,VALID,0,VALID,92.7541,VALID,0,VALID,19.4103,VALID,133,VALID,1.225,
2011-01-29, 03:31:05,VALID,915.388,VALID,0,VALID,92.777,VALID,0,VALID,19.3893,VALID,127,VALID,1.38008,
2011-01-29, 03:32:05,VALID,915.43,VALID,0,VALID,92.8989,VALID,0,VALID,19.4298,VALID,135,VALID,1.15742,
2011-01-29, 03:33:05,VALID,915.428,VALID,0,VALID,92.8989,VALID,0,VALID,19.4103,VALID,106,VALID,1.23086,
2011-01-29, 03:34:05,VALID,915.425,VALID,0,VALID,93.0057,VALID,0,VALID,19.4103,VALID,125,VALID,1.80234,
2011-01-29, 03:35:05,VALID,915.437,VALID,0,VALID,92.9142,VALID,0,VALID,19.4313,VALID,102,VALID,1.58516,
2011-01-29, 03:36:05,VALID,915.404,VALID,0,VALID,92.7998,VALID,0,VALID,19.4298,VALID,82,VALID,1.61719,
2011-01-29, 03:37:05,VALID,915.414,VALID,0,VALID,92.3882,VALID,0,VALID,19.4298,VALID,100,VALID,2.95039,
2011-01-29, 03:38:05,VALID,915.407,VALID,0,VALID,92.129,VALID,0,VALID,19.4883,VALID,90,VALID,1.8832,
2011-01-29, 03:39:05,VALID,915.408,VALID,0,VALID,91.8622,VALID,0,VALID,19.5273,VALID,106,VALID,2.14922,
2011-01-29, 03:40:05,VALID,915.276,VALID,0,VALID,91.5115,VALID,0,VALID,19.5483,VALID,76,VALID,2.63516,
2011-01-29, 03:41:05,VALID,915.338,VALID,0,VALID,91.0312,VALID,0,VALID,19.6053,VALID,79,VALID,1.47305,
2011-01-29, 03:42:05,VALID,915.329,VALID,0,VALID,91.2447,VALID,0,VALID,19.6458,VALID,80,VALID,1.21992,
2011-01-29, 03:43:05,VALID,915.352,VALID,0,VALID,91.4734,VALID,0,VALID,19.6053,VALID,80,VALID,1.27266,